Flag for Austria Past Weather in St. Johann im Pongau, Salzburg, Austria — Yesterday and Last 2 Weeks

Now
64 °F

Light rain. Overcast.


Feels Like: 64 °F
Forecast: 59 / 80 °F
Wind: 8 mph from Southeast

Location: Salzburg-Flughafen

Current Time: Jul 26, 2016 at 4:49:03 AM

Latest Report: Jul 26, 2016 at 4:20 AM


Visibility: N/A

Pressure: 30.12 "Hg (28.05 "Hg at 606m altitude)

Humidity: 94%

Dew Point: 63 °F

Location of St. Johann im PongauLocation

Past Weather in St. Johann im Pongau — Graph

°F

St. Johann im Pongau Temperature Yesterday

Maximum temperature yesterday: 77 °F (at 1:50 PM)
Minimum temperature yesterday: 66 °F (at 4:20 AM)
Average temperature yesterday: 69 °F

High & Low Weather Summary for the Past Weeks

 TemperatureHumidityPressure
High90 °F (Jul 11, 2:20 PM)100% (Jul 12, 6:20 PM)30.33 "Hg (Jul 12, 6:20 PM)
Low50 °F (Jul 14, 3:20 AM)37% (Jul 20, 4:50 PM)29.86 "Hg (Jul 11, 6:20 PM)
Average66 °F79%30.10 "Hg
* Reported Jul 11 3:20 AM — Jul 26 3:50 AM, St. Johann im Pongau, Weather by CustomWeather, © 2016

Note: Actual official high and low records may vary slightly from our data, if they occured in-between our weather recording intervals... More about our weather records

Advertising

St. Johann im Pongau Weather History for the Previous 24 Hours

Scroll right to see more
 ConditionsComfort  
Time TempWeatherWind HumidityBarometerVisibility
3:50 AM
Tue, Jul 26
64 °FLots of rain. Overcast.12 mph94%30.12 "HgN/A
3:20 AM64 °FHeavy rain. Overcast.9 mph94%30.12 "Hg2 mi
2:50 AM64 °FMild.8 mph94%30.12 "HgN/A
2:20 AM64 °FMild.8 mph94%30.12 "HgN/A
1:50 AM64 °FMild.9 mph94%30.12 "HgN/A
1:20 AM64 °FMild.9 mph94%30.12 "HgN/A
12:50 AM64 °FSprinkles. Overcast.9 mph94%30.12 "HgN/A
12:20 AM66 °FLight rain. Passing clouds.10 mph88%30.12 "HgN/A
11:50 PM
Mon, Jul 25
66 °FPassing clouds.9 mph88%30.12 "HgN/A
11:20 PM66 °FPassing clouds.9 mph88%30.12 "HgN/A
10:50 PM66 °FPassing clouds.9 mph94%30.12 "HgN/A
10:20 PM66 °FPassing clouds.10 mph88%30.12 "HgN/A
9:50 PM66 °FPartly sunny.10 mph94%30.12 "HgN/A
9:20 PM66 °FPartly sunny.10 mph94%30.12 "HgN/A
8:50 PM66 °FPartly sunny.10 mph94%30.12 "HgN/A
8:20 PM68 °FPartly sunny.7 mph88%30.09 "HgN/A
7:50 PM68 °FPartly sunny.8 mph88%30.09 "HgN/A
7:20 PM68 °FBroken clouds.7 mph88%30.09 "HgN/A
6:50 PM68 °FSprinkles. Broken clouds.6 mph88%30.09 "HgN/A
6:20 PM68 °FSprinkles. Broken clouds.6 mph94%30.09 "HgN/A
5:50 PM66 °FSprinkles. Broken clouds.5 mph94%30.09 "HgN/A
5:20 PM66 °FSprinkles. Partly sunny.5 mph94%30.09 "HgN/A
4:50 PM66 °FThunderstorms. Broken clouds.7 mph94%30.12 "HgN/A
4:20 PM68 °FRain. Cloudy.7 mph83%30.09 "HgN/A
3:50 PM77 °FScattered showers. Broken clouds.9 mph65%30.07 "HgN/A
3:20 PM77 °FThundershowers. Broken clouds.6 mph65%30.09 "HgN/A
2:50 PM75 °FBroken clouds.7 mph69%30.07 "HgN/A
2:20 PM75 °FBroken clouds.8 mph69%30.09 "HgN/A
1:50 PM77 °FBroken clouds.5 mph69%30.09 "HgN/A
1:20 PM75 °FBroken clouds.5 mph69%30.09 "HgN/A
12:50 PM75 °FBroken clouds.5 mph65%30.09 "HgN/A
12:20 PM73 °FBroken clouds.8 mph74%30.09 "HgN/A
11:50 AM73 °FBroken clouds.7 mph65%30.09 "HgN/A
11:20 AM72 °FBroken clouds.6 mph73%30.12 "HgN/A
10:50 AM72 °FBroken clouds.10 mph78%30.12 "HgN/A
10:20 AM70 °FBroken clouds.12 mph83%30.09 "HgN/A
9:50 AM72 °FBroken clouds.7 mph78%30.09 "HgN/A
9:20 AM72 °FBroken clouds.2 mph78%30.09 "HgN/A
8:50 AM72 °FBroken clouds.1 mph78%30.09 "HgN/A
8:20 AM68 °FBroken clouds.1 mph88%30.12 "HgN/A
7:50 AM68 °FBroken clouds.1 mph88%30.12 "HgN/A
7:20 AM68 °FBroken clouds.3 mph88%30.09 "HgN/A
6:50 AM66 °FPartly sunny.5 mph88%30.09 "HgN/A
6:20 AM66 °FPassing clouds.3 mph88%30.09 "HgN/A
5:50 AM66 °FPassing clouds.5 mph88%30.09 "HgN/A
5:20 AM66 °FPassing clouds.6 mph88%30.09 "HgN/A
4:50 AM66 °FPassing clouds.6 mph88%30.09 "HgN/A
4:20 AM66 °FOvercast.6 mph88%30.09 "HgN/A
Weather by CustomWeather, © 2016

See weather overviewHow to use our weather pages